This is the latest recevied weather packets stored in our database for station/object OM6ACB-6. If no packets are shown the sender has not sent any weather packets the latest 10 day(s).
| Time | Temp. | Humidity | Pressure | Rain* | Wind** | Luminosity | Snow |
|---|---|---|---|---|---|---|---|
| 1788151347 | 54° F | 26% | 765.1 mmHg | 0 in | - | - | - |
| 1788150746 | 53° F | 42% | 765.1 mmHg | 0 in | - | - | - |
| 1788150146 | 51° F | 60% | 765 mmHg | 0 in | - | - | - |
| 1788149546 | 51° F | 61% | 764.9 mmHg | 0 in | - | - | - |
| 1788148945 | 49° F | 62% | 764.8 mmHg | 0 in | - | - | - |
| 1788148345 | 50° F | 62% | 764.7 mmHg | 0 in | - | - | - |
| 1788147745 | 50° F | 62% | 764.7 mmHg | 0 in | - | - | - |
| 1788147145 | 50° F | 60% | 764.8 mmHg | 0 in | - | - | - |
| 1788146544 | 51° F | 61% | 764.8 mmHg | 0 in | - | - | - |
| 1788145944 | 50° F | 60% | 764.8 mmHg | 0 in | - | - | - |
| 1788145344 | 51° F | 60% | 764.9 mmHg | 0 in | - | - | - |
| 1788144743 | 50° F | 59% | 765 mmHg | 0 in | - | - | - |
| 1788144143 | 50° F | 59% | 765.1 mmHg | 0 in | - | - | - |
| 1788143543 | 51° F | 57% | 765.1 mmHg | 0 in | - | - | - |
| 1788142942 | 51° F | 57% | 765.1 mmHg | 0 in | - | - | - |
| 1788142342 | 52° F | 55% | 765.1 mmHg | 0 in | - | - | - |
| 1788141742 | 52° F | 55% | 765.1 mmHg | 0 in | - | - | - |
| 1788141142 | 52° F | 55% | 765.1 mmHg | 0 in | - | - | - |
| 1788140541 | 53° F | 57% | 765.1 mmHg | 0 in | - | - | - |
| 1788139941 | 53° F | 58% | 765.1 mmHg | 0 in | - | - | - |
| 1788139341 | 52° F | 57% | 765.1 mmHg | 0 in | - | - | - |
| 1788138740 | 51° F | 54% | 765.1 mmHg | 0 in | - | - | - |
| 1788138140 | 52° F | 56% | 765.1 mmHg | 0 in | - | - | - |
| 1788137540 | 53° F | 57% | 765.1 mmHg | 0 in | - | - | - |
| 1788136940 | 53° F | 58% | 765.3 mmHg | 0 in | - | - | - |
* Rain latest hour (hover to see other rain measurements)
** Current wind speed in m/s (hover to see current wind gust speed)